Powrót do katalogu

FENGYUN 1C DEB

AktywnyPO
NORAD 38144·DEBRIS·🇨🇳 China

Wystrzelony May 10, 1999 z Taiyuan Satellite Launch Center

Loading…

Następne Przeloty (najbliższe 24 godziny)

TLE

NieaktualneSource: Space-Track

Epoka: Aug 26, 2026, 06:06 UTC

1 38144U 99025EQR 26238.25434255  .00001015  00000-0  10841-2 0  9999
2 38144  98.9863  46.6094 0287987 247.9915 109.0403 13.59614696645228

Śledź FENGYUN 1C DEB w czasie rzeczywistym z AllMySat

Download on the App Store